NKS4EVR KFLL-KFLL

Flight info

Callsign NKS4EVR
Flight time 2h 37m
Altitude 35000
Route FEALX2 FEALX 2610N07918W 2610N07938W 2555N07938W 2555N07918W 2540N07918W 2540N07858W 2610N07858W 2610N07838W 2555N07838W 2555N07858W 2540N07858W 2540N07818W 2610N07818W 2610N07817W 2540N07818W 2540N07758W 2610N07758W 2610N07738W 2555N07738W 2555N07758W 2540N07738W 2540N07718W 2540N07717W 2540N07718W 2610N07718W 2540N07718W 2540N07658W 2610N07658W 2610N07648W 2611N07648W 2611N07708W 2610N07708W 2610N07658W 2610N07658W 2540N07658W 2540N07938W DEKAL DEKAL9
Aircraft A320/M-SDE3FGHIRWY/LB1

Departure

Time 2026-05-05 20:34
Airport Fort Lauderdale Hollywood International Airport (KFLL)

Arrival

Time 2026-05-05 23:12
Airport Fort Lauderdale Hollywood International Airport (KFLL)
Time Latitude Longitude Altitude Speed Heading
2026-05-05 20:22 26.07047 -80.14670 16 ft 0 kts 17°
2026-05-05 20:27 26.07026 -80.14676 17 ft 4 kts
2026-05-05 20:27 26.07001 -80.14672 18 ft 4 kts 316°
2026-05-05 20:28 26.06994 -80.14658 17 ft 0 kts 270°
2026-05-05 20:30 26.06994 -80.14660 16 ft 1 kts 269°
2026-05-05 20:30 26.06987 -80.14705 16 ft 12 kts 245°
2026-05-05 20:30 26.06931 -80.14786 16 ft 15 kts 230°
2026-05-05 20:30 26.06911 -80.14906 16 ft 17 kts 270°
2026-05-05 20:31 26.06911 -80.15040 16 ft 17 kts 270°
2026-05-05 20:31 26.06870 -80.15129 16 ft 15 kts 187°
2026-05-05 20:31 26.06773 -80.15153 16 ft 15 kts 238°
2026-05-05 20:31 26.06769 -80.15273 16 ft 16 kts 271°
2026-05-05 20:32 26.06770 -80.15404 16 ft 18 kts 270°
2026-05-05 20:32 26.06753 -80.15525 18 ft 15 kts 216°
2026-05-05 20:32 26.06697 -80.15601 16 ft 15 kts 270°
2026-05-05 20:32 26.06698 -80.15721 16 ft 15 kts 270°
2026-05-05 20:33 26.06674 -80.15818 17 ft 13 kts 205°
2026-05-05 20:33 26.06592 -80.15799 18 ft 12 kts 110°
2026-05-05 20:33 26.06589 -80.15758 19 ft 0 kts 91°
2026-05-05 20:33 26.06589 -80.15582 23 ft 62 kts 90°
2026-05-05 20:34 26.06584 -80.14790 23 ft 135 kts 90°
2026-05-05 20:34 26.06575 -80.13594 382 ft 161 kts 90°
2026-05-05 20:34 26.06555 -80.12350 1183 ft 163 kts 89°
2026-05-05 20:34 26.06572 -80.11071 1705 ft 171 kts 88°
2026-05-05 20:35 26.06604 -80.09660 1971 ft 193 kts 87°
2026-05-05 20:35 26.06638 -80.08071 2239 ft 218 kts 88°
2026-05-05 20:35 26.06670 -80.06291 2585 ft 242 kts 88°
2026-05-05 20:35 26.06697 -80.04338 3045 ft 261 kts 88°
2026-05-05 20:36 26.06710 -80.02986 3496 ft 267 kts 89°
2026-05-05 20:36 26.07191 -80.00294 4477 ft 275 kts 58°
2026-05-05 20:36 26.08346 -79.98578 5230 ft 280 kts 49°
2026-05-05 20:36 26.09592 -79.96903 6060 ft 283 kts 48°
2026-05-05 20:37 26.10858 -79.95208 6867 ft 286 kts 48°
2026-05-05 20:37 26.11721 -79.94053 7371 ft 289 kts 48°
2026-05-05 20:37 26.13013 -79.92319 8104 ft 294 kts 49°
2026-05-05 20:37 26.14324 -79.90553 8833 ft 298 kts 48°
2026-05-05 20:38 26.15654 -79.88755 9548 ft 303 kts 49°
2026-05-05 20:38 26.16946 -79.86918 10211 ft 309 kts 51°
2026-05-05 20:38 26.18265 -79.84931 10441 ft 330 kts 52°
2026-05-05 20:38 26.19639 -79.82801 10761 ft 345 kts 52°
2026-05-05 20:39 26.21042 -79.80605 11323 ft 350 kts 52°
2026-05-05 20:39 26.22463 -79.78383 11952 ft 354 kts 52°
2026-05-05 20:39 26.23903 -79.76146 12619 ft 354 kts 52°
2026-05-05 20:39 26.25307 -79.73958 13651 ft 344 kts 53°
2026-05-05 20:40 26.26484 -79.71628 14306 ft 348 kts 64°
2026-05-05 20:40 26.27228 -79.69053 14864 ft 354 kts 80°
2026-05-05 20:40 26.27407 -79.66304 15404 ft 357 kts 84°
2026-05-05 20:40 26.27647 -79.63544 15940 ft 359 kts 78°
2026-05-05 20:41 26.28100 -79.60800 16471 ft 362 kts 77°
2026-05-05 20:41 26.28546 -79.58027 17006 ft 365 kts 77°
2026-05-05 20:41 26.28926 -79.55217 17529 ft 369 kts 81°
2026-05-05 20:41 26.29175 -79.52369 18178 ft 367 kts 82°
2026-05-05 20:42 26.29399 -79.49541 18773 ft 366 kts 82°
2026-05-05 20:42 26.29619 -79.46706 19239 ft 369 kts 82°
2026-05-05 20:42 26.29842 -79.43847 19670 ft 372 kts 80°
2026-05-05 20:42 26.30339 -79.41026 20082 ft 372 kts 72°
2026-05-05 20:43 26.30994 -79.38225 20497 ft 375 kts 71°
2026-05-05 20:43 26.31666 -79.35404 20935 ft 378 kts 71°
2026-05-05 20:43 26.32341 -79.32560 21323 ft 381 kts 71°
2026-05-05 20:43 26.33011 -79.29728 21712 ft 385 kts 71°
2026-05-05 20:44 26.33385 -79.26749 22085 ft 394 kts 89°
2026-05-05 20:44 26.32919 -79.23723 22451 ft 401 kts 110°
2026-05-05 20:44 26.31586 -79.20993 22807 ft 403 kts 131°
2026-05-05 20:44 26.29538 -79.18891 23012 ft 399 kts 152°
2026-05-05 20:45 26.24401 -79.17399 23045 ft 376 kts 192°
2026-05-05 20:45 26.21902 -79.18008 23046 ft 362 kts 209°
2026-05-05 20:45 26.19746 -79.19344 23040 ft 350 kts 225°
2026-05-05 20:46 26.18066 -79.21231 23042 ft 339 kts 240°
2026-05-05 20:46 26.16949 -79.23493 23040 ft 330 kts 255°
2026-05-05 20:46 26.16436 -79.25946 23038 ft 324 kts 269°
2026-05-05 20:46 26.16502 -79.28428 23041 ft 321 kts 279°
2026-05-05 20:47 26.16666 -79.30910 23039 ft 322 kts 274°
2026-05-05 20:47 26.16670 -79.33408 23036 ft 323 kts 273°
2026-05-05 20:47 26.16671 -79.35908 23035 ft 323 kts 273°
2026-05-05 20:47 26.16674 -79.38411 23038 ft 323 kts 273°
2026-05-05 20:48 26.16679 -79.40910 23036 ft 323 kts 273°
2026-05-05 20:48 26.16681 -79.43413 23040 ft 323 kts 272°
2026-05-05 20:48 26.16680 -79.45918 23042 ft 324 kts 272°
2026-05-05 20:48 26.16676 -79.48423 23040 ft 324 kts 272°
2026-05-05 20:49 26.16672 -79.50929 23041 ft 324 kts 272°
2026-05-05 20:49 26.16651 -79.53437 23040 ft 325 kts 269°
2026-05-05 20:49 26.16244 -79.55923 23043 ft 330 kts 256°
2026-05-05 20:49 26.15294 -79.58268 23041 ft 336 kts 243°
2026-05-05 20:50 26.13843 -79.60298 23038 ft 345 kts 229°
2026-05-05 20:50 26.11907 -79.61922 23033 ft 355 kts 215°
2026-05-05 20:50 26.09598 -79.62979 23025 ft 365 kts 200°
2026-05-05 20:50 26.07044 -79.63339 23027 ft 376 kts 186°
2026-05-05 20:51 26.04425 -79.63333 23025 ft 376 kts 186°
2026-05-05 20:51 26.01796 -79.63143 23015 ft 383 kts 175°
2026-05-05 20:51 25.99209 -79.62334 23018 ft 391 kts 161°
2026-05-05 20:51 25.96811 -79.60876 23018 ft 397 kts 147°
2026-05-05 20:52 25.94746 -79.58825 23021 ft 401 kts 133°
2026-05-05 20:52 25.93146 -79.56285 23008 ft 403 kts 118°
2026-05-05 20:52 25.92107 -79.53402 23012 ft 403 kts 103°
2026-05-05 20:52 25.91682 -79.50343 23015 ft 400 kts 89°
2026-05-05 20:53 25.91679 -79.47260 23749 ft 398 kts 90°
2026-05-05 20:53 25.91681 -79.44207 23003 ft 394 kts 89°
2026-05-05 20:53 25.91357 -79.41200 22999 ft 392 kts 103°
2026-05-05 20:53 25.90472 -79.38350 22995 ft 387 kts 116°
2026-05-05 20:54 25.89110 -79.35821 22996 ft 378 kts 129°
2026-05-05 20:54 25.87327 -79.33664 23010 ft 383 kts 142°
2026-05-05 20:54 25.85172 -79.31938 23002 ft 381 kts 155°
2026-05-05 20:54 25.82770 -79.30738 22994 ft 376 kts 167°
2026-05-05 20:55 25.80243 -79.30107 22998 ft 369 kts 180°
2026-05-05 20:55 25.77699 -79.29998 22996 ft 365 kts 186°
2026-05-05 20:55 25.75194 -79.30002 22998 ft 365 kts 186°
2026-05-05 20:55 25.72612 -79.29737 22995 ft 373 kts 171°
2026-05-05 20:56 25.70180 -79.28671 22992 ft 382 kts 152°
2026-05-05 20:56 25.68146 -79.26751 22989 ft 388 kts 130°
2026-05-05 20:56 25.66819 -79.24149 22988 ft 390 kts 107°
2026-05-05 20:56 25.66382 -79.21210 23023 ft 387 kts 87°
2026-05-05 20:57 25.66412 -79.18225 23029 ft 388 kts 86°
2026-05-05 20:57 25.66453 -79.15271 23030 ft 389 kts 86°
2026-05-05 20:57 25.66494 -79.12278 23029 ft 389 kts 86°
2026-05-05 20:57 25.66653 -79.09296 23030 ft 386 kts 77°
2026-05-05 20:58 25.67306 -79.06441 23031 ft 380 kts 64°
2026-05-05 20:58 25.68441 -79.03827 23034 ft 373 kts 52°
2026-05-05 20:58 25.69976 -79.01545 23029 ft 366 kts 40°
2026-05-05 20:58 25.71827 -78.99657 23031 ft 358 kts 30°
2026-05-05 20:59 25.73916 -78.98216 23027 ft 350 kts 19°
2026-05-05 20:59 25.76157 -78.97241 23033 ft 342 kts
2026-05-05 20:59 25.78465 -78.96741 23033 ft 335 kts 358°
2026-05-05 20:59 25.80774 -78.96666 23031 ft 331 kts 353°
2026-05-05 21:00 25.83075 -78.96673 23035 ft 331 kts 353°
2026-05-05 21:00 25.85389 -78.96676 23030 ft 332 kts 353°
2026-05-05 21:00 25.87692 -78.96674 23030 ft 330 kts 353°
2026-05-05 21:00 25.89991 -78.96670 23028 ft 330 kts 353°
2026-05-05 21:01 25.92287 -78.96666 23031 ft 330 kts 353°
2026-05-05 21:01 25.94578 -78.96662 23030 ft 329 kts 353°
2026-05-05 21:01 25.96868 -78.96660 23030 ft 329 kts 353°
2026-05-05 21:01 25.99159 -78.96661 23034 ft 329 kts 353°
2026-05-05 21:02 26.01447 -78.96664 23033 ft 329 kts 353°
2026-05-05 21:02 26.03736 -78.96668 23034 ft 329 kts 353°
2026-05-05 21:02 26.06028 -78.96474 23034 ft 339 kts
2026-05-05 21:02 26.08139 -78.95209 23029 ft 357 kts 37°
2026-05-05 21:03 26.09693 -78.93005 23031 ft 368 kts 53°
2026-05-05 21:03 26.10941 -78.90500 23022 ft 371 kts 56°
2026-05-05 21:03 26.12161 -78.87968 23021 ft 372 kts 56°
2026-05-05 21:03 26.13384 -78.85431 23016 ft 373 kts 56°
2026-05-05 21:04 26.14610 -78.82886 23021 ft 373 kts 56°
2026-05-05 21:04 26.15811 -78.80323 23009 ft 376 kts 61°
2026-05-05 21:04 26.16559 -78.77505 23004 ft 385 kts 79°
2026-05-05 21:04 26.16489 -78.74519 23017 ft 390 kts 101°
2026-05-05 21:05 26.15567 -78.71681 23011 ft 391 kts 119°
2026-05-05 21:05 26.14070 -78.69165 23021 ft 390 kts 132°
2026-05-05 21:05 26.12190 -78.67008 23012 ft 387 kts 143°
2026-05-05 21:05 26.10016 -78.65278 23011 ft 383 kts 155°
2026-05-05 21:06 26.07614 -78.64063 23017 ft 376 kts 168°
2026-05-05 21:06 26.05093 -78.63422 23007 ft 369 kts 180°
2026-05-05 21:06 26.02557 -78.63318 23000 ft 363 kts 187°
2026-05-05 21:06 26.00028 -78.63329 23006 ft 364 kts 187°
2026-05-05 21:07 25.97539 -78.63600 22995 ft 356 kts 199°
2026-05-05 21:07 25.95205 -78.64391 23002 ft 347 kts 211°
2026-05-05 21:07 25.93186 -78.65737 23001 ft 333 kts 228°
2026-05-05 21:07 25.91693 -78.67626 23001 ft 320 kts 245°
2026-05-05 21:08 25.90833 -78.69854 23000 ft 310 kts 262°
2026-05-05 21:08 25.90634 -78.72204 22999 ft 304 kts 275°
2026-05-05 21:08 25.90739 -78.74554 23000 ft 305 kts 275°
2026-05-05 21:08 25.90843 -78.76911 23010 ft 306 kts 275°
2026-05-05 21:09 25.90946 -78.79274 23009 ft 307 kts 275°
2026-05-05 21:09 25.91057 -78.81644 23004 ft 307 kts 276°
2026-05-05 21:09 25.91176 -78.84016 23007 ft 308 kts 276°
2026-05-05 21:09 25.91297 -78.86387 23014 ft 308 kts 276°
2026-05-05 21:10 25.91420 -78.88764 23015 ft 308 kts 276°
2026-05-05 21:10 25.91514 -78.91143 23014 ft 310 kts 270°
2026-05-05 21:10 25.91050 -78.93492 23014 ft 318 kts 250°
2026-05-05 21:10 25.89781 -78.95532 23015 ft 330 kts 229°
2026-05-05 21:11 25.87789 -78.96889 23008 ft 346 kts 204°
2026-05-05 21:11 25.85362 -78.97248 23003 ft 360 kts 185°
2026-05-05 21:11 25.82853 -78.97191 23002 ft 361 kts 185°
2026-05-05 21:11 25.80334 -78.97125 23003 ft 363 kts 185°
2026-05-05 21:12 25.77808 -78.97058 23001 ft 363 kts 185°
2026-05-05 21:12 25.75276 -78.96990 22999 ft 364 kts 185°
2026-05-05 21:12 25.72747 -78.96632 22995 ft 373 kts 168°
2026-05-05 21:12 25.70383 -78.95373 23002 ft 383 kts 146°
2026-05-05 21:13 25.68517 -78.93266 22999 ft 387 kts 124°
2026-05-05 21:13 25.67419 -78.90554 22998 ft 387 kts 101°
2026-05-05 21:13 25.67167 -78.87610 22997 ft 383 kts 88°
2026-05-05 21:13 25.67147 -78.84654 22994 ft 384 kts 87°
2026-05-05 21:14 25.67133 -78.81688 22994 ft 386 kts 87°
2026-05-05 21:14 25.67120 -78.78710 23003 ft 387 kts 88°
2026-05-05 21:14 25.67103 -78.75725 23002 ft 388 kts 88°
2026-05-05 21:14 25.67081 -78.72737 23002 ft 388 kts 88°
2026-05-05 21:15 25.67055 -78.69746 23005 ft 389 kts 88°
2026-05-05 21:15 25.67028 -78.66748 23010 ft 389 kts 88°
2026-05-05 21:15 25.67001 -78.63750 23019 ft 389 kts 88°
2026-05-05 21:15 25.66973 -78.60747 23022 ft 389 kts 88°
2026-05-05 21:16 25.66945 -78.57748 23022 ft 390 kts 88°
2026-05-05 21:16 25.66918 -78.54742 23027 ft 390 kts 88°
2026-05-05 21:16 25.66891 -78.51743 23031 ft 390 kts 88°
2026-05-05 21:16 25.66863 -78.48738 23033 ft 390 kts 88°
2026-05-05 21:17 25.66834 -78.45733 23032 ft 390 kts 88°
2026-05-05 21:17 25.66881 -78.42736 23034 ft 389 kts 87°
2026-05-05 21:17 25.66793 -78.39735 23033 ft 390 kts 89°
2026-05-05 21:17 25.66985 -78.36768 23032 ft 383 kts 72°
2026-05-05 21:18 25.67920 -78.34055 23032 ft 372 kts 53°
2026-05-05 21:18 25.69478 -78.31838 23028 ft 360 kts 36°
2026-05-05 21:18 25.71439 -78.30268 23022 ft 347 kts 19°
2026-05-05 21:18 25.73657 -78.29364 23020 ft 335 kts
2026-05-05 21:19 25.75935 -78.29143 23013 ft 325 kts 352°
2026-05-05 21:19 25.78200 -78.29195 23008 ft 326 kts 352°
2026-05-05 21:19 25.80471 -78.29245 23013 ft 326 kts 352°
2026-05-05 21:19 25.82741 -78.29295 23011 ft 327 kts 352°
2026-05-05 21:20 25.85017 -78.29341 23020 ft 327 kts 352°
2026-05-05 21:20 25.87295 -78.29385 23024 ft 327 kts 352°
2026-05-05 21:20 25.89573 -78.29431 23022 ft 328 kts 352°
2026-05-05 21:20 25.91852 -78.29480 23019 ft 328 kts 352°
2026-05-05 21:21 25.94130 -78.29528 23027 ft 328 kts 352°
2026-05-05 21:21 25.96411 -78.29576 23033 ft 328 kts 352°
2026-05-05 21:21 25.98692 -78.29622 23034 ft 328 kts 352°
2026-05-05 21:21 26.00972 -78.29669 23036 ft 328 kts 352°
2026-05-05 21:22 26.03180 -78.30054 23042 ft 317 kts 335°
2026-05-05 21:22 26.05204 -78.30977 23032 ft 313 kts 329°
2026-05-05 21:22 26.07124 -78.32112 23036 ft 312 kts 327°
2026-05-05 21:22 26.09023 -78.33285 23035 ft 312 kts 327°
2026-05-05 21:23 26.10922 -78.34464 23036 ft 313 kts 326°
2026-05-05 21:23 26.12834 -78.35621 23035 ft 314 kts 331°
2026-05-05 21:23 26.14987 -78.36183 23038 ft 326 kts 353°
2026-05-05 21:23 26.17259 -78.35736 23033 ft 341 kts 15°
2026-05-05 21:24 26.19303 -78.34303 23036 ft 357 kts 38°
2026-05-05 21:24 26.20806 -78.32055 23019 ft 370 kts 58°
2026-05-05 21:24 26.21569 -78.29285 23012 ft 381 kts 81°
2026-05-05 21:24 26.21617 -78.27324 23010 ft 384 kts 90°
2026-05-05 21:25 26.21113 -78.24396 23000 ft 388 kts 112°
2026-05-05 21:25 26.19755 -78.21821 22998 ft 386 kts 134°
2026-05-05 21:25 26.17721 -78.19934 22999 ft 378 kts 156°
2026-05-05 21:25 26.14481 -78.18871 22993 ft 361 kts 186°
2026-05-05 21:26 26.12819 -78.19016 22993 ft 350 kts 201°
2026-05-05 21:26 26.10606 -78.19984 23026 ft 341 kts 216°
2026-05-05 21:26 26.08533 -78.21271 23025 ft 342 kts 217°
2026-05-05 21:26 26.06471 -78.22595 23033 ft 342 kts 217°
2026-05-05 21:27 26.04365 -78.23854 23024 ft 348 kts 208°
2026-05-05 21:27 26.02003 -78.24484 23033 ft 359 kts 195°
2026-05-05 21:27 25.99532 -78.24891 23034 ft 359 kts 195°
2026-05-05 21:27 25.97055 -78.25280 23027 ft 360 kts 195°
2026-05-05 21:28 25.94577 -78.25658 23026 ft 360 kts 194°
2026-05-05 21:28 25.92093 -78.26033 23026 ft 360 kts 194°
2026-05-05 21:28 25.89611 -78.26412 23026 ft 360 kts 195°
2026-05-05 21:28 25.87132 -78.26796 23027 ft 360 kts 195°
2026-05-05 21:29 25.84650 -78.27185 23028 ft 360 kts 195°
2026-05-05 21:29 25.82133 -78.27580 23035 ft 361 kts 194°
2026-05-05 21:29 25.79680 -78.27949 23031 ft 361 kts 194°
2026-05-05 21:29 25.77192 -78.28320 23030 ft 361 kts 194°
2026-05-05 21:30 25.74680 -78.28561 23031 ft 367 kts 183°
2026-05-05 21:30 25.72152 -78.27980 23033 ft 379 kts 162°
2026-05-05 21:30 25.69893 -78.26438 23027 ft 387 kts 139°
2026-05-05 21:30 25.68244 -78.24085 23019 ft 389 kts 116°
2026-05-05 21:31 25.67447 -78.21243 23010 ft 386 kts 93°
2026-05-05 21:31 25.67302 -78.18283 23002 ft 385 kts 90°
2026-05-05 21:31 25.67206 -78.15316 23003 ft 385 kts 87°
2026-05-05 21:31 25.67239 -78.12348 23002 ft 385 kts 85°
2026-05-05 21:32 25.67299 -78.09375 22998 ft 386 kts 86°
2026-05-05 21:32 25.67341 -78.06400 23002 ft 385 kts 81°
2026-05-05 21:32 25.67925 -78.03549 23002 ft 376 kts 62°
2026-05-05 21:32 25.69216 -78.01093 23008 ft 364 kts 43°
2026-05-05 21:33 25.71031 -77.99221 23012 ft 351 kts 26°
2026-05-05 21:33 25.73171 -77.98029 23014 ft 339 kts 10°
2026-05-05 21:33 25.75443 -77.97543 23004 ft 328 kts 355°
2026-05-05 21:33 25.77719 -77.97493 23012 ft 327 kts 354°
2026-05-05 21:34 25.80001 -77.97449 23002 ft 328 kts 354°
2026-05-05 21:34 25.82284 -77.97406 23006 ft 329 kts 354°
2026-05-05 21:34 25.84576 -77.97365 23014 ft 329 kts 354°
2026-05-05 21:34 25.86868 -77.97326 23014 ft 330 kts 354°
2026-05-05 21:35 25.89160 -77.97287 23024 ft 330 kts 354°
2026-05-05 21:35 25.91456 -77.97248 23025 ft 330 kts 354°
2026-05-05 21:35 25.93754 -77.97209 23037 ft 330 kts 354°
2026-05-05 21:35 25.96053 -77.97171 23039 ft 330 kts 354°
2026-05-05 21:36 25.98350 -77.97133 23044 ft 330 kts 354°
2026-05-05 21:36 26.00649 -77.97094 23047 ft 330 kts 354°
2026-05-05 21:36 26.02950 -77.97057 23049 ft 331 kts 354°
2026-05-05 21:36 26.05250 -77.97018 23056 ft 331 kts 354°
2026-05-05 21:37 26.07551 -77.96980 23056 ft 331 kts 354°
2026-05-05 21:37 26.09848 -77.96941 23051 ft 331 kts 355°
2026-05-05 21:37 26.12146 -77.96534 23045 ft 342 kts 13°
2026-05-05 21:37 26.14224 -77.95227 23052 ft 357 kts 35°
2026-05-05 21:38 26.15786 -77.93027 23049 ft 372 kts 59°
2026-05-05 21:38 26.16542 -77.90248 23031 ft 382 kts 81°
2026-05-05 21:38 26.16569 -77.87275 23022 ft 385 kts 88°
2026-05-05 21:38 26.16534 -77.84289 23025 ft 386 kts 86°
2026-05-05 21:39 26.16555 -77.81300 23018 ft 387 kts 86°
2026-05-05 21:39 26.16584 -77.78303 23017 ft 387 kts 86°
2026-05-05 21:39 26.16615 -77.75303 23029 ft 388 kts 86°
2026-05-05 21:39 26.16593 -77.72300 23020 ft 390 kts 94°
2026-05-05 21:40 26.15941 -77.69372 23028 ft 392 kts 114°
2026-05-05 21:40 26.14518 -77.66810 23029 ft 389 kts 134°
2026-05-05 21:40 26.12457 -77.64929 23015 ft 380 kts 156°
2026-05-05 21:40 26.10020 -77.63928 23012 ft 371 kts 172°
2026-05-05 21:41 26.07495 -77.63430 23003 ft 366 kts 181°
2026-05-05 21:41 26.04959 -77.63244 23008 ft 364 kts 184°
2026-05-05 21:41 26.02423 -77.63162 23015 ft 365 kts 185°
2026-05-05 21:41 25.99924 -77.63340 22994 ft 354 kts 201°
2026-05-05 21:42 25.97740 -77.64406 23001 ft 336 kts 223°
2026-05-05 21:42 25.96171 -77.66222 23012 ft 320 kts 245°
2026-05-05 21:42 25.95401 -77.68474 22992 ft 309 kts 263°
2026-05-05 21:42 25.95052 -77.70826 23007 ft 309 kts 266°
2026-05-05 21:43 25.94756 -77.73194 23000 ft 310 kts 266°
2026-05-05 21:43 25.94466 -77.75569 23000 ft 311 kts 266°
2026-05-05 21:43 25.94178 -77.77948 23002 ft 311 kts 266°
2026-05-05 21:43 25.93890 -77.80333 23003 ft 311 kts 266°
2026-05-05 21:44 25.93603 -77.82717 23011 ft 312 kts 266°
2026-05-05 21:44 25.93317 -77.85106 23012 ft 312 kts 266°
2026-05-05 21:44 25.93031 -77.87496 23016 ft 312 kts 266°
2026-05-05 21:44 25.92745 -77.89886 23014 ft 312 kts 266°
2026-05-05 21:45 25.92321 -77.92258 23015 ft 317 kts 254°
2026-05-05 21:45 25.91193 -77.94392 23013 ft 328 kts 233°
2026-05-05 21:45 25.89337 -77.95937 23014 ft 344 kts 210°
2026-05-05 21:45 25.86965 -77.96536 23010 ft 361 kts 185°
2026-05-05 21:46 25.84481 -77.95937 22996 ft 375 kts 158°
2026-05-05 21:46 25.82402 -77.94174 23013 ft 385 kts 130°
2026-05-05 21:46 25.80890 -77.91696 23026 ft 390 kts 122°
2026-05-05 21:46 25.79532 -77.89083 23026 ft 391 kts 119°
2026-05-05 21:47 25.78243 -77.86419 23024 ft 392 kts 118°
2026-05-05 21:47 25.76972 -77.83741 23027 ft 392 kts 118°
2026-05-05 21:47 25.75688 -77.81077 23026 ft 392 kts 119°
2026-05-05 21:47 25.74381 -77.78424 23024 ft 392 kts 119°
2026-05-05 21:48 25.73052 -77.75782 23023 ft 392 kts 120°
2026-05-05 21:48 25.71728 -77.73186 23024 ft 392 kts 120°
2026-05-05 21:48 25.70382 -77.70562 23026 ft 392 kts 120°
2026-05-05 21:48 25.69083 -77.67905 23029 ft 392 kts 115°
2026-05-05 21:49 25.68035 -77.65119 23031 ft 392 kts 108°
2026-05-05 21:49 25.67283 -77.62220 23029 ft 391 kts 101°
2026-05-05 21:49 25.66836 -77.59256 23028 ft 389 kts 94°
2026-05-05 21:49 25.66680 -77.56270 23029 ft 388 kts 87°
2026-05-05 21:50 25.66688 -77.53285 23029 ft 388 kts 87°
2026-05-05 21:50 25.66688 -77.50297 23028 ft 388 kts 87°
2026-05-05 21:50 25.66688 -77.47309 23031 ft 388 kts 87°
2026-05-05 21:50 25.66688 -77.44320 23030 ft 388 kts 87°
2026-05-05 21:51 25.66689 -77.41333 23035 ft 388 kts 87°
2026-05-05 21:51 25.66760 -77.38352 23029 ft 385 kts 78°
2026-05-05 21:51 25.67446 -77.35530 23032 ft 375 kts 60°
2026-05-05 21:51 25.68814 -77.33127 23032 ft 363 kts 41°
2026-05-05 21:52 25.72860 -77.30219 23026 ft 339 kts
2026-05-05 21:52 25.75147 -77.29784 23025 ft 331 kts 358°
2026-05-05 21:52 25.77433 -77.29686 23020 ft 328 kts 353°
2026-05-05 21:53 25.79708 -77.29757 23021 ft 327 kts 351°
2026-05-05 21:53 25.81983 -77.29874 23022 ft 327 kts 351°
2026-05-05 21:53 25.84265 -77.29960 23027 ft 329 kts 353°
2026-05-05 21:53 25.86559 -77.29960 23026 ft 330 kts 354°
2026-05-05 21:54 25.88827 -77.29947 23031 ft 330 kts 354°
2026-05-05 21:54 25.91124 -77.29933 23035 ft 330 kts 354°
2026-05-05 21:54 25.93424 -77.29917 23039 ft 330 kts 354°
2026-05-05 21:54 25.95724 -77.29902 23040 ft 330 kts 354°
2026-05-05 21:55 25.98026 -77.29888 23040 ft 330 kts 354°
2026-05-05 21:55 26.00323 -77.29873 23047 ft 330 kts 354°
2026-05-05 21:55 26.02590 -77.30051 23044 ft 321 kts 339°
2026-05-05 21:55 26.04620 -77.30981 23046 ft 313 kts 325°
2026-05-05 21:56 26.06442 -77.32284 23044 ft 311 kts 322°
2026-05-05 21:56 26.08231 -77.33638 23042 ft 311 kts 322°
2026-05-05 21:56 26.10019 -77.34998 23045 ft 311 kts 322°
2026-05-05 21:56 26.11808 -77.36360 23040 ft 312 kts 322°
2026-05-05 21:57 26.13770 -77.37409 23047 ft 319 kts 341°
2026-05-05 21:57 26.16019 -77.37521 23040 ft 333 kts
2026-05-05 21:57 26.18226 -77.36617 23038 ft 348 kts 25°
2026-05-05 21:57 26.20057 -77.34785 23030 ft 363 kts 47°
2026-05-05 21:58 26.21223 -77.32253 23017 ft 375 kts 70°
2026-05-05 21:58 26.21552 -77.29349 23010 ft 383 kts 88°
2026-05-05 21:58 26.21110 -77.26422 23001 ft 387 kts 110°
2026-05-05 21:58 26.19806 -77.23824 22998 ft 385 kts 133°
2026-05-05 21:59 26.17810 -77.21893 22997 ft 378 kts 155°
2026-05-05 21:59 26.15401 -77.20872 22995 ft 366 kts 177°
2026-05-05 21:59 26.12921 -77.20866 22993 ft 351 kts 199°
2026-05-05 21:59 26.10719 -77.21828 22993 ft 334 kts 221°
2026-05-05 22:00 26.08851 -77.23362 23032 ft 335 kts 225°
2026-05-05 22:00 26.07030 -77.24981 23022 ft 336 kts 226°
2026-05-05 22:00 26.05212 -77.26614 23027 ft 336 kts 226°
2026-05-05 22:00 26.03391 -77.28249 23022 ft 337 kts 224°
2026-05-05 22:01 26.01321 -77.29540 23021 ft 350 kts 205°
2026-05-05 22:01 25.98878 -77.29982 23024 ft 363 kts 187°
2026-05-05 22:01 25.96344 -77.30009 23022 ft 365 kts 186°
2026-05-05 22:01 25.93804 -77.30008 23020 ft 365 kts 186°
2026-05-05 22:02 25.91262 -77.29998 23024 ft 365 kts 186°
2026-05-05 22:02 25.88718 -77.29984 23029 ft 366 kts 186°
2026-05-05 22:02 25.86172 -77.29972 23029 ft 366 kts 186°
2026-05-05 22:02 25.83625 -77.29967 23029 ft 366 kts 186°
2026-05-05 22:03 25.81076 -77.29968 23034 ft 366 kts 186°
2026-05-05 22:03 25.78530 -77.29964 23038 ft 367 kts 184°
2026-05-05 22:03 25.76008 -77.29602 23033 ft 375 kts 171°
2026-05-05 22:03 25.73533 -77.28629 23034 ft 381 kts 157°
2026-05-05 22:04 25.71279 -77.27050 23027 ft 386 kts 143°
2026-05-05 22:04 25.69356 -77.24902 23023 ft 389 kts 129°
2026-05-05 22:04 25.67933 -77.22398 23022 ft 391 kts 115°
2026-05-05 22:04 25.67015 -77.19573 23026 ft 390 kts 101°
2026-05-05 22:05 25.66679 -77.16610 23027 ft 387 kts 88°
2026-05-05 22:05 25.66620 -77.13631 23025 ft 386 kts 88°
2026-05-05 22:05 25.66583 -77.10656 23022 ft 386 kts 88°
2026-05-05 22:05 25.66551 -77.07676 23024 ft 386 kts 88°
2026-05-05 22:06 25.66676 -77.04717 23028 ft 382 kts 75°
2026-05-05 22:06 25.67495 -77.01963 23024 ft 372 kts 56°
2026-05-05 22:06 25.68964 -76.99667 23018 ft 361 kts 38°
2026-05-05 22:06 25.70907 -76.98001 23019 ft 348 kts 21°
2026-05-05 22:07 25.73116 -76.97039 23010 ft 336 kts
2026-05-05 22:07 25.75404 -76.96779 23015 ft 327 kts 353°
2026-05-05 22:07 25.77687 -76.96784 23009 ft 328 kts 353°
2026-05-05 22:07 25.79973 -76.96782 23012 ft 329 kts 354°
2026-05-05 22:08 25.82269 -76.96774 23019 ft 330 kts 354°
2026-05-05 22:08 25.84569 -76.96766 23018 ft 331 kts 354°
2026-05-05 22:08 25.86871 -76.96756 23019 ft 331 kts 354°
2026-05-05 22:08 25.89174 -76.96747 23028 ft 331 kts 354°
2026-05-05 22:09 25.91480 -76.96737 23029 ft 332 kts 354°
2026-05-05 22:09 25.93761 -76.96723 23028 ft 322 kts 354°
2026-05-05 22:09 25.95961 -76.96699 23027 ft 312 kts 354°
2026-05-05 22:09 25.98096 -76.96668 23031 ft 301 kts 354°
2026-05-05 22:10 26.00147 -76.96625 23033 ft 290 kts 354°
2026-05-05 22:10 26.02145 -76.96575 23027 ft 282 kts 354°
2026-05-05 22:10 26.04060 -76.96514 23032 ft 269 kts 354°
2026-05-05 22:10 26.05906 -76.96443 23055 ft 264 kts 354°
2026-05-05 22:11 26.07718 -76.96368 23031 ft 255 kts 354°
2026-05-05 22:11 26.09469 -76.96284 23019 ft 250 kts 354°
2026-05-05 22:11 26.11197 -76.96198 23030 ft 244 kts 354°
2026-05-05 22:11 26.12864 -76.96103 23021 ft 237 kts 353°
2026-05-05 22:12 26.14447 -76.96283 23037 ft 222 kts 333°
2026-05-05 22:12 26.15734 -76.97119 23029 ft 211 kts 311°
2026-05-05 22:12 26.16556 -76.98434 23037 ft 207 kts 291°
2026-05-05 22:12 26.16826 -77.00003 23029 ft 209 kts 272°
2026-05-05 22:13 26.16802 -77.01624 23028 ft 210 kts 272°
2026-05-05 22:13 26.16780 -77.03247 23028 ft 210 kts 272°
2026-05-05 22:13 26.16768 -77.04323 23030 ft 210 kts 272°
2026-05-05 22:13 26.16743 -77.06470 23024 ft 209 kts 272°
2026-05-05 22:14 26.16722 -77.08092 23026 ft 210 kts 272°
2026-05-05 22:14 26.16703 -77.09715 23040 ft 210 kts 272°
2026-05-05 22:14 26.16701 -77.10811 23028 ft 209 kts 275°
2026-05-05 22:14 26.17125 -77.12325 23014 ft 208 kts 304°
2026-05-05 22:15 26.18294 -77.13291 23014 ft 219 kts 335°
2026-05-05 22:15 26.19863 -77.13361 23011 ft 239 kts
2026-05-05 22:15 26.21365 -77.12433 23010 ft 260 kts 37°
2026-05-05 22:15 26.22352 -77.10686 23005 ft 277 kts 68°
2026-05-05 22:16 26.22685 -77.08550 23034 ft 285 kts 81°
2026-05-05 22:16 26.22842 -77.06367 23029 ft 288 kts 82°
2026-05-05 22:16 26.22975 -77.04135 23030 ft 289 kts 84°
2026-05-05 22:16 26.23026 -77.01889 23031 ft 290 kts 86°
2026-05-05 22:17 26.23043 -76.99639 23029 ft 291 kts 87°
2026-05-05 22:17 26.23058 -76.97390 23029 ft 291 kts 86°
2026-05-05 22:17 26.23075 -76.95139 23032 ft 291 kts 86°
2026-05-05 22:17 26.23093 -76.92887 23029 ft 291 kts 86°
2026-05-05 22:18 26.23111 -76.90635 23032 ft 291 kts 87°
2026-05-05 22:18 26.23133 -76.88384 23032 ft 291 kts 86°
2026-05-05 22:18 26.23156 -76.86134 23028 ft 291 kts 86°
2026-05-05 22:18 26.23179 -76.83883 23030 ft 291 kts 86°
2026-05-05 22:19 26.23203 -76.81627 23035 ft 291 kts 87°
2026-05-05 22:19 26.22950 -76.79397 23012 ft 292 kts 112°
2026-05-05 22:19 26.21891 -76.77526 23009 ft 283 kts 143°
2026-05-05 22:19 26.20270 -76.76436 23002 ft 265 kts 174°
2026-05-05 22:20 26.18525 -76.76337 23003 ft 242 kts 205°
2026-05-05 22:20 26.17132 -76.77157 22996 ft 218 kts 236°
2026-05-05 22:20 26.16456 -76.78576 23019 ft 206 kts 264°
2026-05-05 22:20 26.16357 -76.80167 23030 ft 207 kts 273°
2026-05-05 22:21 26.16404 -76.81770 23036 ft 207 kts 274°
2026-05-05 22:21 26.16473 -76.83375 23033 ft 208 kts 275°
2026-05-05 22:21 26.16547 -76.84979 23034 ft 208 kts 275°
2026-05-05 22:21 26.16621 -76.86587 23033 ft 208 kts 275°
2026-05-05 22:22 26.16695 -76.88191 23033 ft 208 kts 275°
2026-05-05 22:22 26.16773 -76.89796 23030 ft 208 kts 275°
2026-05-05 22:22 26.16851 -76.91401 23037 ft 208 kts 275°
2026-05-05 22:22 26.16928 -76.93006 23032 ft 208 kts 274°
2026-05-05 22:23 26.16720 -76.94595 23033 ft 213 kts 251°
2026-05-05 22:23 26.15785 -76.95910 23029 ft 228 kts 222°
2026-05-05 22:23 26.14228 -76.96476 23023 ft 248 kts 192°
2026-05-05 22:23 26.12483 -76.96512 23018 ft 251 kts 190°
2026-05-05 22:24 26.10728 -76.96512 23017 ft 253 kts 189°
2026-05-05 22:24 26.08953 -76.96507 23029 ft 261 kts 189°
2026-05-05 22:24 26.07088 -76.96513 23032 ft 275 kts 189°
2026-05-05 22:24 26.05149 -76.96522 23021 ft 289 kts 188°
2026-05-05 22:25 26.03092 -76.96530 23033 ft 302 kts 188°
2026-05-05 22:25 26.00943 -76.96540 23008 ft 317 kts 188°
2026-05-05 22:25 25.98682 -76.96554 23026 ft 334 kts 187°
2026-05-05 22:25 25.96298 -76.96569 23027 ft 351 kts 187°
2026-05-05 22:26 25.93806 -76.96581 23023 ft 362 kts 187°
2026-05-05 22:26 25.91271 -76.96583 23023 ft 366 kts 186°
2026-05-05 22:26 25.88723 -76.96582 23024 ft 366 kts 186°
2026-05-05 22:26 25.86171 -76.96582 23026 ft 367 kts 186°
2026-05-05 22:27 25.83620 -76.96586 23023 ft 367 kts 187°
2026-05-05 22:27 25.81069 -76.96594 23036 ft 367 kts 187°
2026-05-05 22:27 25.78521 -76.96606 23020 ft 366 kts 187°
2026-05-05 22:27 25.76013 -76.96876 23028 ft 358 kts 199°
2026-05-05 22:28 25.73677 -76.97709 23028 ft 349 kts 211°
2026-05-05 22:28 25.71601 -76.99032 23032 ft 341 kts 222°
2026-05-05 22:28 25.69847 -77.00763 23028 ft 337 kts 233°
2026-05-05 22:28 25.68428 -77.02879 23032 ft 348 kts 244°
2026-05-05 22:29 25.67395 -77.05353 23019 ft 360 kts 254°
2026-05-05 22:29 25.66839 -77.08097 23019 ft 372 kts 265°
2026-05-05 22:29 25.66783 -77.11004 23022 ft 384 kts 271°
2026-05-05 22:29 25.66819 -77.14013 23022 ft 397 kts 271°
2026-05-05 22:30 25.66848 -77.17120 23038 ft 409 kts 271°
2026-05-05 22:30 25.66872 -77.20313 23022 ft 419 kts 271°
2026-05-05 22:30 25.66895 -77.23584 23021 ft 429 kts 271°
2026-05-05 22:30 25.66916 -77.26907 23024 ft 433 kts 271°
2026-05-05 22:31 25.66936 -77.30242 23032 ft 433 kts 271°
2026-05-05 22:31 25.66954 -77.33585 23024 ft 434 kts 271°
2026-05-05 22:31 25.66972 -77.36934 23031 ft 434 kts 271°
2026-05-05 22:31 25.66992 -77.40277 23024 ft 434 kts 271°
2026-05-05 22:32 25.67015 -77.43616 23037 ft 433 kts 271°
2026-05-05 22:32 25.67037 -77.46956 23029 ft 433 kts 271°
2026-05-05 22:32 25.67057 -77.50298 23025 ft 434 kts 271°
2026-05-05 22:32 25.67074 -77.53637 23023 ft 433 kts 271°
2026-05-05 22:33 25.67090 -77.56977 23032 ft 433 kts 271°
2026-05-05 22:33 25.67106 -77.60313 23032 ft 433 kts 271°
2026-05-05 22:33 25.67124 -77.63650 23026 ft 433 kts 271°
2026-05-05 22:33 25.67142 -77.66985 23015 ft 433 kts 271°
2026-05-05 22:34 25.67155 -77.70319 23017 ft 432 kts 271°
2026-05-05 22:34 25.67165 -77.73650 23017 ft 432 kts 271°
2026-05-05 22:34 25.67177 -77.76983 23015 ft 432 kts 271°
2026-05-05 22:34 25.67190 -77.80314 23019 ft 432 kts 271°
2026-05-05 22:35 25.67202 -77.83644 23017 ft 432 kts 270°
2026-05-05 22:35 25.67213 -77.86974 23018 ft 432 kts 271°
2026-05-05 22:35 25.67222 -77.90302 23376 ft 432 kts 270°
2026-05-05 22:35 25.67228 -77.93586 23752 ft 432 kts 270°
2026-05-05 22:36 25.67234 -77.96959 23974 ft 432 kts 270°
2026-05-05 22:36 25.67240 -78.00238 24023 ft 431 kts 270°
2026-05-05 22:36 25.67247 -78.03557 24026 ft 431 kts 270°
2026-05-05 22:36 25.67255 -78.06874 24027 ft 430 kts 270°
2026-05-05 22:37 25.67264 -78.10191 24027 ft 430 kts 270°
2026-05-05 22:37 25.67272 -78.13505 24027 ft 430 kts 270°
2026-05-05 22:37 25.67279 -78.16818 24027 ft 430 kts 270°
2026-05-05 22:37 25.67281 -78.20128 24026 ft 430 kts 270°
2026-05-05 22:38 25.67278 -78.23440 24029 ft 430 kts 270°
2026-05-05 22:38 25.67274 -78.26750 24025 ft 429 kts 270°
2026-05-05 22:38 25.67269 -78.30060 24024 ft 429 kts 270°
2026-05-05 22:38 25.67265 -78.33363 24022 ft 429 kts 270°
2026-05-05 22:39 25.67263 -78.36669 24020 ft 429 kts 270°
2026-05-05 22:39 25.67264 -78.39973 24020 ft 429 kts 270°
2026-05-05 22:39 25.67263 -78.43280 24019 ft 429 kts 270°
2026-05-05 22:39 25.67261 -78.46583 24018 ft 429 kts 270°
2026-05-05 22:40 25.67259 -78.49884 24019 ft 429 kts 270°
2026-05-05 22:40 25.67258 -78.53189 24020 ft 429 kts 270°
2026-05-05 22:40 25.67255 -78.56492 24018 ft 428 kts 270°
2026-05-05 22:40 25.67249 -78.59794 24015 ft 428 kts 270°
2026-05-05 22:41 25.67239 -78.63093 24017 ft 428 kts 270°
2026-05-05 22:41 25.67228 -78.66392 24013 ft 428 kts 270°
2026-05-05 22:41 25.67219 -78.69689 24013 ft 428 kts 270°
2026-05-05 22:41 25.67209 -78.72985 24011 ft 428 kts 270°
2026-05-05 22:42 25.67198 -78.76281 24011 ft 428 kts 270°
2026-05-05 22:42 25.67186 -78.79577 24010 ft 427 kts 270°
2026-05-05 22:42 25.67174 -78.82869 24011 ft 427 kts 270°
2026-05-05 22:42 25.67163 -78.86164 24008 ft 427 kts 270°
2026-05-05 22:43 25.67149 -78.89459 24009 ft 427 kts 270°
2026-05-05 22:43 25.67135 -78.92757 24008 ft 427 kts 270°
2026-05-05 22:43 25.67122 -78.96049 24008 ft 427 kts 270°
2026-05-05 22:43 25.67108 -78.99344 24008 ft 427 kts 270°
2026-05-05 22:44 25.67090 -79.02640 24010 ft 427 kts 270°
2026-05-05 22:44 25.67071 -79.05931 24011 ft 427 kts 270°
2026-05-05 22:44 25.67053 -79.09225 24008 ft 427 kts 270°
2026-05-05 22:44 25.67034 -79.12472 24008 ft 427 kts 270°
2026-05-05 22:45 25.67015 -79.15770 24010 ft 427 kts 269°
2026-05-05 22:45 25.66996 -79.19062 24012 ft 427 kts 270°
2026-05-05 22:45 25.66978 -79.22355 24010 ft 427 kts 270°
2026-05-05 22:45 25.66959 -79.25649 24013 ft 427 kts 270°
2026-05-05 22:46 25.66936 -79.28939 24014 ft 427 kts 269°
2026-05-05 22:46 25.66913 -79.32233 24017 ft 427 kts 269°
2026-05-05 22:46 25.66891 -79.35525 24015 ft 427 kts 270°
2026-05-05 22:46 25.66867 -79.38815 24018 ft 427 kts 269°
2026-05-05 22:47 25.66842 -79.42107 24023 ft 427 kts 269°
2026-05-05 22:47 25.66816 -79.45392 24021 ft 426 kts 269°
2026-05-05 22:47 25.66791 -79.48678 24019 ft 426 kts 269°
2026-05-05 22:47 25.66766 -79.51959 24014 ft 426 kts 270°
2026-05-05 22:48 25.67048 -79.55222 23973 ft 430 kts 282°
2026-05-05 22:48 25.68203 -79.58318 23703 ft 441 kts 298°
2026-05-05 22:48 25.70195 -79.60927 22585 ft 451 kts 317°
2026-05-05 22:48 25.72960 -79.62635 21413 ft 464 kts 337°
2026-05-05 22:49 25.76146 -79.63196 20668 ft 467 kts 353°
2026-05-05 22:49 25.79350 -79.63280 19512 ft 450 kts 348°
2026-05-05 22:49 25.82258 -79.64243 18224 ft 427 kts 328°
2026-05-05 22:49 25.84652 -79.66069 16702 ft 412 kts 315°
2026-05-05 22:50 25.86570 -79.68335 15839 ft 391 kts 306°
2026-05-05 22:50 25.88092 -79.70748 15130 ft 378 kts 298°
2026-05-05 22:50 25.89298 -79.73334 14374 ft 378 kts 294°
2026-05-05 22:50 25.90446 -79.75966 13625 ft 378 kts 293°
2026-05-05 22:51 25.91570 -79.78600 12894 ft 376 kts 293°
2026-05-05 22:51 25.92670 -79.81219 12221 ft 373 kts 292°
2026-05-05 22:51 25.93748 -79.83819 11548 ft 369 kts 292°
2026-05-05 22:51 25.94803 -79.86370 11268 ft 355 kts 292°
2026-05-05 22:52 25.95813 -79.88801 11151 ft 338 kts 292°
2026-05-05 22:52 25.96778 -79.91115 11026 ft 323 kts 292°
2026-05-05 22:52 25.97708 -79.93335 10904 ft 311 kts 292°
2026-05-05 22:52 25.98593 -79.95441 10787 ft 299 kts 292°
2026-05-05 22:53 25.99454 -79.97503 10665 ft 289 kts 292°
2026-05-05 22:53 26.00286 -79.99504 10472 ft 282 kts 292°
2026-05-05 22:53 26.01101 -80.01469 10372 ft 279 kts 292°
2026-05-05 22:53 26.01914 -80.03430 10249 ft 279 kts 292°
2026-05-05 22:54 26.02725 -80.05386 10126 ft 279 kts 292°
2026-05-05 22:54 26.03536 -80.07342 9999 ft 278 kts 292°
2026-05-05 22:54 26.04351 -80.09314 9569 ft 282 kts 292°
2026-05-05 22:54 26.05167 -80.11287 9220 ft 281 kts 292°
2026-05-05 22:55 26.05992 -80.13270 8780 ft 283 kts 292°
2026-05-05 22:55 26.06817 -80.15263 8360 ft 283 kts 291°
2026-05-05 22:55 26.07323 -80.17365 7981 ft 282 kts 274°
2026-05-05 22:55 26.07313 -80.19539 7598 ft 282 kts 267°
2026-05-05 22:56 26.07238 -80.21717 7212 ft 282 kts 267°
2026-05-05 22:56 26.07167 -80.23896 6829 ft 282 kts 268°
2026-05-05 22:56 26.07098 -80.26079 6443 ft 283 kts 268°
2026-05-05 22:56 26.07029 -80.28268 6031 ft 283 kts 268°
2026-05-05 22:57 26.06962 -80.30458 5642 ft 284 kts 268°
2026-05-05 22:57 26.06896 -80.32661 5254 ft 285 kts 268°
2026-05-05 22:57 26.06829 -80.34866 4860 ft 286 kts 268°
2026-05-05 22:57 26.06761 -80.37084 4451 ft 287 kts 268°
2026-05-05 22:58 26.06693 -80.39303 4083 ft 287 kts 268°
2026-05-05 22:58 26.06625 -80.41505 3896 ft 281 kts 269°
2026-05-05 22:58 26.06341 -80.43593 3827 ft 269 kts 245°
2026-05-05 22:58 26.05188 -80.45105 3762 ft 252 kts 207°
2026-05-05 22:59 26.03573 -80.45503 3711 ft 231 kts 167°
2026-05-05 22:59 26.02233 -80.44702 3645 ft 223 kts 126°
2026-05-05 22:59 26.01731 -80.43114 3580 ft 223 kts 84°
2026-05-05 22:59 26.02235 -80.41505 3517 ft 224 kts 57°
2026-05-05 23:00 26.03966 -80.38636 3372 ft 217 kts 58°
2026-05-05 23:00 26.04729 -80.37261 3288 ft 206 kts 59°
2026-05-05 23:00 26.05464 -80.35913 3211 ft 195 kts 59°
2026-05-05 23:01 26.06149 -80.34652 3131 ft 186 kts 59°
2026-05-05 23:01 26.06646 -80.33388 3006 ft 180 kts 82°
2026-05-05 23:01 26.06674 -80.32005 2823 ft 180 kts 89°
2026-05-05 23:01 26.06666 -80.30614 2586 ft 179 kts 89°
2026-05-05 23:02 26.06658 -80.29238 2351 ft 176 kts 89°
2026-05-05 23:02 26.06652 -80.27883 2115 ft 175 kts 89°
2026-05-05 23:02 26.06646 -80.26471 1864 ft 192 kts 89°
2026-05-05 23:02 26.06638 -80.24967 1625 ft 195 kts 88°
2026-05-05 23:03 26.06630 -80.23465 1365 ft 194 kts 88°
2026-05-05 23:03 26.06625 -80.22465 1206 ft 197 kts 88°
2026-05-05 23:03 26.06616 -80.20952 937 ft 194 kts 89°
2026-05-05 23:03 26.06612 -80.19456 647 ft 194 kts 89°
2026-05-05 23:04 26.06609 -80.17947 403 ft 196 kts 88°
2026-05-05 23:04 26.06589 -80.16432 179 ft 197 kts 90°
2026-05-05 23:04 26.06579 -80.14932 63 ft 192 kts 89°
2026-05-05 23:04 26.06569 -80.13455 136 ft 193 kts 89°
2026-05-05 23:05 26.06550 -80.11905 983 ft 202 kts 89°
2026-05-05 23:05 26.06501 -80.10369 2106 ft 197 kts 90°
2026-05-05 23:05 26.06438 -80.08823 2713 ft 203 kts 93°
2026-05-05 23:05 26.06004 -80.07324 2936 ft 209 kts 124°
2026-05-05 23:06 26.04847 -80.06346 3004 ft 215 kts 158°
2026-05-05 23:06 26.03339 -80.06190 3012 ft 222 kts 183°
2026-05-05 23:06 26.01915 -80.06840 3006 ft 227 kts 219°
2026-05-05 23:06 26.01033 -80.08284 3011 ft 230 kts 253°
2026-05-05 23:07 26.00848 -80.10050 3012 ft 231 kts 270°
2026-05-05 23:07 26.00861 -80.11838 3013 ft 231 kts 272°
2026-05-05 23:07 26.00902 -80.13612 3004 ft 225 kts 272°
2026-05-05 23:07 26.00943 -80.15289 3003 ft 211 kts 272°
2026-05-05 23:08 26.00976 -80.16905 3003 ft 207 kts 272°
2026-05-05 23:08 26.01005 -80.18496 3046 ft 205 kts 272°
2026-05-05 23:08 26.01023 -80.20062 3014 ft 196 kts 272°
2026-05-05 23:08 26.01134 -80.21509 2946 ft 182 kts 291°
2026-05-05 23:09 26.01798 -80.22621 2843 ft 171 kts 326°
2026-05-05 23:09 26.02836 -80.23151 2487 ft 159 kts 355°
2026-05-05 23:09 26.03902 -80.23275 2178 ft 151 kts
2026-05-05 23:09 26.04917 -80.23179 1870 ft 147 kts 19°
2026-05-05 23:10 26.05784 -80.22651 1623 ft 141 kts 44°
2026-05-05 23:10 26.06336 -80.21792 1340 ft 135 kts 69°
2026-05-05 23:10 26.06492 -80.20777 1044 ft 132 kts 84°
2026-05-05 23:10 26.06551 -80.19755 769 ft 132 kts 85°
2026-05-05 23:11 26.06598 -80.18719 513 ft 134 kts 88°
2026-05-05 23:11 26.06596 -80.17675 412 ft 135 kts 89°
2026-05-05 23:11 26.06589 -80.16622 224 ft 137 kts 89°
2026-05-05 23:11 26.06589 -80.15584 38 ft 133 kts 89°
2026-05-05 23:12 26.06583 -80.14714 29 ft 79 kts 90°
2026-05-05 23:12 26.06581 -80.14355 50 ft 32 kts 88°
2026-05-05 23:12 26.06622 -80.14235 55 ft 11 kts 42°
2026-05-05 23:12 26.06678 -80.14296 49 ft 17 kts 271°
2026-05-05 23:13 26.06677 -80.14434 46 ft 20 kts 269°
2026-05-05 23:13 26.06677 -80.14608 38 ft 25 kts 272°
2026-05-05 23:13 26.06676 -80.14772 28 ft 20 kts 271°
2026-05-05 23:13 26.06692 -80.14890 19 ft 12 kts 291°
2026-05-05 23:14 26.06763 -80.14894 15 ft 15 kts 57°
2026-05-05 23:14 26.06765 -80.14771 15 ft 17 kts 90°
2026-05-05 23:14 26.06766 -80.14642 15 ft 15 kts 90°
2026-05-05 23:14 26.06765 -80.14555 15 ft 12 kts 91°
2026-05-05 23:15 26.06784 -80.14474 16 ft 9 kts 35°
2026-05-05 23:15 26.06813 -80.14474 16 ft 3 kts 359°
2026-05-05 23:15 26.06839 -80.14474 16 ft 5 kts
2026-05-05 23:15 26.06870 -80.14474 16 ft 3 kts
2026-05-05 23:16 26.06876 -80.14474 16 ft 0 kts 360°
2026-05-05 23:16 26.06884 -80.14474 16 ft 0 kts 360°